Time,TemperatureF,DewpointF,PressureIn,WindDirection,WindDirectionDegrees,WindSpeedMPH,WindSpeedGustMPH,Humidity,HourlyPrecipIn,Conditions,Clouds,dailyrainin,SoftwareType,DateUTC
2013-07-11 00:02:00,70.0,60.1,-100.00,NNE,13,0.0,2.0,71,0.00,,,0.00,meteohub,2013-07-11 05:02:00,
2013-07-11 00:07:00,69.6,60.3,-100.00,NNE,13,0.0,2.0,72,0.00,,,0.00,meteohub,2013-07-11 05:07:00,
2013-07-11 00:12:00,69.3,59.9,-100.00,NNE,13,0.0,2.0,72,0.00,,,0.00,meteohub,2013-07-11 05:12:00,
2013-07-11 00:17:00,69.1,60.1,-100.00,NNE,13,0.0,2.0,73,0.00,,,0.00,meteohub,2013-07-11 05:17:00,
2013-07-11 00:22:00,68.7,59.7,-100.00,NNE,13,0.0,0.0,73,0.00,,,0.00,meteohub,2013-07-11 05:22:00,
2013-07-11 00:27:00,68.5,59.9,-100.00,NNE,13,0.0,0.0,74,0.00,,,0.00,meteohub,2013-07-11 05:27:00,
2013-07-11 00:32:00,68.5,59.9,-100.00,NNE,13,0.0,0.0,74,0.00,,,0.00,meteohub,2013-07-11 05:32:00,
2013-07-11 00:37:00,68.5,59.9,-100.00,NNE,13,0.0,0.0,74,0.00,,,0.00,meteohub,2013-07-11 05:37:00,
2013-07-11 00:42:00,68.5,59.9,-100.00,NNE,13,0.0,0.0,74,0.00,,,0.00,meteohub,2013-07-11 05:42:00,
2013-07-11 00:47:00,68.5,59.9,-100.00,NNE,13,0.0,0.0,74,0.00,,,0.00,meteohub,2013-07-11 05:47:00,
2013-07-11 00:52:00,68.5,59.9,-100.00,NNE,13,0.0,0.0,74,0.00,,,0.00,meteohub,2013-07-11 05:52:00,
2013-07-11 00:57:00,68.7,60.1,-100.00,NNE,13,0.0,0.0,74,0.00,,,0.00,meteohub,2013-07-11 05:57:00,
2013-07-11 01:02:00,68.7,60.1,-100.00,NNE,13,0.0,0.0,74,0.00,,,0.00,meteohub,2013-07-11 06:02:00,
2013-07-11 01:07:00,68.7,60.1,-100.00,NNE,13,0.0,0.0,74,0.00,,,0.00,meteohub,2013-07-11 06:07:00,
2013-07-11 01:13:00,68.9,60.3,-100.00,NNE,13,0.0,1.0,74,0.00,,,0.00,meteohub,2013-07-11 06:13:00,
2013-07-11 01:18:00,69.1,60.4,-100.00,NNE,13,0.0,1.0,74,0.00,,,0.00,meteohub,2013-07-11 06:18:00,
2013-07-11 01:23:00,69.3,60.3,-100.00,NNE,13,0.0,1.0,73,0.00,,,0.00,meteohub,2013-07-11 06:23:00,
2013-07-11 01:28:00,69.1,60.1,-100.00,NNE,13,0.0,1.0,73,0.00,,,0.00,meteohub,2013-07-11 06:28:00,
2013-07-11 01:32:00,69.1,60.1,-100.00,NNE,13,0.0,1.0,73,0.00,,,0.00,meteohub,2013-07-11 06:32:00,
2013-07-11 01:37:00,69.1,60.1,-100.00,NNE,13,0.0,1.0,73,0.00,,,0.00,meteohub,2013-07-11 06:37:00,
2013-07-11 01:42:00,68.9,60.3,-100.00,NNE,13,0.0,1.0,74,0.00,,,0.00,meteohub,2013-07-11 06:42:00,
2013-07-11 01:47:00,68.7,60.1,-100.00,NNE,13,0.0,1.0,74,0.00,,,0.00,meteohub,2013-07-11 06:47:00,
2013-07-11 01:52:00,68.7,60.1,-100.00,NNE,13,0.0,0.0,74,0.00,,,0.00,meteohub,2013-07-11 06:52:00,
2013-07-11 01:57:00,68.7,60.1,-100.00,NNE,13,0.0,0.0,74,0.00,,,0.00,meteohub,2013-07-11 06:57:00,
2013-07-11 02:02:00,68.7,60.1,-100.00,NNE,13,0.0,0.0,74,0.00,,,0.00,meteohub,2013-07-11 07:02:00,
2013-07-11 02:07:00,68.7,60.1,-100.00,NNE,13,0.0,1.0,74,0.00,,,0.00,meteohub,2013-07-11 07:07:00,
2013-07-11 02:12:00,68.7,60.1,-100.00,NNE,13,0.0,1.0,74,0.00,,,0.00,meteohub,2013-07-11 07:12:00,
2013-07-11 02:17:00,68.7,59.7,-100.00,NNE,13,0.0,1.0,73,0.00,,,0.00,meteohub,2013-07-11 07:17:00,
2013-07-11 02:22:00,68.5,59.5,-100.00,NNE,13,0.0,1.0,73,0.00,,,0.00,meteohub,2013-07-11 07:22:00,
2013-07-11 02:27:00,68.5,59.9,-100.00,NNE,13,0.0,1.0,74,0.00,,,0.00,meteohub,2013-07-11 07:27:00,
2013-07-11 02:32:00,68.4,59.7,-100.00,NNE,13,0.0,1.0,74,0.00,,,0.00,meteohub,2013-07-11 07:32:00,
2013-07-11 02:37:00,68.4,59.7,-100.00,NNE,13,0.0,1.0,74,0.00,,,0.00,meteohub,2013-07-11 07:37:00,
2013-07-11 02:42:00,68.4,59.7,-100.00,NNE,13,0.0,0.0,74,0.00,,,0.00,meteohub,2013-07-11 07:42:00,
2013-07-11 02:47:00,68.2,59.5,-100.00,NNE,13,0.0,1.0,74,0.00,,,0.00,meteohub,2013-07-11 07:47:00,
2013-07-11 02:52:00,68.2,59.5,-100.00,NNE,13,0.0,1.0,74,0.00,,,0.00,meteohub,2013-07-11 07:52:00,
2013-07-11 02:57:00,68.2,59.5,-100.00,NNE,15,0.0,1.0,74,0.00,,,0.00,meteohub,2013-07-11 07:57:00,
2013-07-11 03:02:00,68.2,59.9,-100.00,NNE,15,0.0,2.0,75,0.00,,,0.00,meteohub,2013-07-11 08:02:00,
2013-07-11 03:07:00,68.0,59.7,-100.00,NNE,16,0.0,2.0,75,0.00,,,0.00,meteohub,2013-07-11 08:07:00,
2013-07-11 03:12:00,68.0,59.7,-100.00,NNE,16,0.0,1.0,75,0.00,,,0.00,meteohub,2013-07-11 08:12:00,
2013-07-11 03:17:00,67.8,59.5,-100.00,NNE,16,0.0,2.0,75,0.00,,,0.00,meteohub,2013-07-11 08:17:00,
2013-07-11 03:22:00,67.8,59.5,-100.00,NNE,16,0.0,2.0,75,0.00,,,0.00,meteohub,2013-07-11 08:22:00,
2013-07-11 03:27:00,67.6,59.4,-100.00,NNE,17,0.0,2.0,75,0.00,,,0.00,meteohub,2013-07-11 08:27:00,
2013-07-11 03:32:00,67.5,59.5,-100.00,NNE,23,0.0,2.0,76,0.00,,,0.00,meteohub,2013-07-11 08:32:00,
2013-07-11 03:37:00,67.5,59.5,-100.00,NNE,21,0.0,2.0,76,0.00,,,0.00,meteohub,2013-07-11 08:37:00,
2013-07-11 03:42:00,67.3,59.5,-100.00,NNE,21,0.0,2.0,76,0.00,,,0.00,meteohub,2013-07-11 08:42:00,
2013-07-11 03:47:00,67.1,59.4,-100.00,NNE,22,0.0,2.0,76,0.00,,,0.00,meteohub,2013-07-11 08:47:00,
2013-07-11 03:52:00,66.9,59.2,-100.00,NNE,22,0.0,2.0,76,0.00,,,0.00,meteohub,2013-07-11 08:52:00,
2013-07-11 03:57:00,66.9,59.2,-100.00,NNE,22,0.0,2.0,76,0.00,,,0.00,meteohub,2013-07-11 08:57:00,
2013-07-11 04:02:00,66.9,59.2,-100.00,NNE,22,0.0,2.0,76,0.00,,,0.00,meteohub,2013-07-11 09:02:00,
2013-07-11 04:07:00,66.7,59.4,-100.00,NNE,22,0.0,2.0,77,0.00,,,0.00,meteohub,2013-07-11 09:07:00,
2013-07-11 04:12:00,66.7,59.4,-100.00,NNE,22,0.0,1.0,77,0.00,,,0.00,meteohub,2013-07-11 09:12:00,
2013-07-11 04:17:00,66.7,59.4,-100.00,NNE,26,1.0,3.0,77,0.00,,,0.00,meteohub,2013-07-11 09:17:00,
2013-07-11 04:22:00,66.6,59.2,-100.00,NNE,28,1.0,3.0,77,0.00,,,0.00,meteohub,2013-07-11 09:22:00,
2013-07-11 04:27:00,66.6,59.2,-100.00,NNE,26,0.0,3.0,77,0.00,,,0.00,meteohub,2013-07-11 09:27:00,
2013-07-11 04:32:00,66.4,59.0,-100.00,NNE,26,0.0,3.0,77,0.00,,,0.00,meteohub,2013-07-11 09:32:00,
2013-07-11 04:37:00,66.2,59.2,-100.00,NNE,23,0.0,2.0,78,0.00,,,0.00,meteohub,2013-07-11 09:37:00,
2013-07-11 04:42:00,66.0,59.0,-100.00,NNE,24,0.0,2.0,78,0.00,,,0.00,meteohub,2013-07-11 09:42:00,
2013-07-11 04:47:00,66.0,59.0,-100.00,NNE,24,0.0,2.0,78,0.00,,,0.00,meteohub,2013-07-11 09:47:00,
2013-07-11 04:52:00,66.0,59.0,-100.00,NNE,24,0.0,2.0,78,0.00,,,0.00,meteohub,2013-07-11 09:52:00,
2013-07-11 04:57:00,65.8,58.8,-100.00,NNE,24,0.0,2.0,78,0.00,,,0.00,meteohub,2013-07-11 09:57:00,
2013-07-11 05:02:00,65.8,58.8,-100.00,NNE,24,0.0,2.0,78,0.00,,,0.00,meteohub,2013-07-11 10:02:00,
2013-07-11 05:07:00,65.7,58.6,-100.00,NNE,24,0.0,1.0,78,0.00,,,0.00,meteohub,2013-07-11 10:07:00,
2013-07-11 05:13:00,65.7,59.0,-100.00,NNE,24,0.0,3.0,79,0.00,,,0.00,meteohub,2013-07-11 10:13:00,
2013-07-11 05:18:00,65.7,59.0,-100.00,NNE,26,0.0,3.0,79,0.00,,,0.00,meteohub,2013-07-11 10:18:00,
2013-07-11 05:23:00,65.7,59.0,-100.00,NNE,26,0.0,3.0,79,0.00,,,0.00,meteohub,2013-07-11 10:23:00,
2013-07-11 05:28:00,65.7,59.0,-100.00,NNE,26,0.0,2.0,79,0.00,,,0.00,meteohub,2013-07-11 10:28:00,
2013-07-11 05:33:00,65.7,59.0,-100.00,NNE,26,0.0,2.0,79,0.00,,,0.00,meteohub,2013-07-11 10:33:00,
2013-07-11 05:38:00,65.7,59.0,-100.00,NNE,26,0.0,1.0,79,0.00,,,0.00,meteohub,2013-07-11 10:38:00,
2013-07-11 05:43:00,65.5,58.8,-100.00,NNE,26,0.0,1.0,79,0.00,,,0.00,meteohub,2013-07-11 10:43:00,
2013-07-11 05:48:00,65.5,58.8,-100.00,NNE,26,0.0,3.0,79,0.00,,,0.00,meteohub,2013-07-11 10:48:00,
2013-07-11 05:53:00,65.5,58.8,-100.00,NNE,24,1.0,3.0,79,0.00,,,0.00,meteohub,2013-07-11 10:53:00,
2013-07-11 05:58:00,65.5,58.8,-100.00,NNE,24,0.0,3.0,79,0.00,,,0.00,meteohub,2013-07-11 10:58:00,
2013-07-11 06:03:00,65.1,58.5,-100.00,NNE,24,0.0,3.0,79,0.00,,,0.00,meteohub,2013-07-11 11:03:00,
2013-07-11 06:08:00,65.1,58.5,-100.00,NNE,24,1.0,3.0,79,0.00,,,0.00,meteohub,2013-07-11 11:08:00,
2013-07-11 06:13:00,65.1,58.8,-100.00,NNE,24,0.0,4.0,80,0.00,,,0.00,meteohub,2013-07-11 11:13:00,
2013-07-11 06:18:00,64.9,58.6,-100.00,NNE,26,0.0,4.0,80,0.00,,,0.00,meteohub,2013-07-11 11:18:00,
2013-07-11 06:23:00,65.1,58.8,-100.00,NNE,26,0.0,4.0,80,0.00,,,0.00,meteohub,2013-07-11 11:23:00,
2013-07-11 06:28:00,65.1,58.8,-100.00,NNE,26,0.0,3.0,80,0.00,,,0.00,meteohub,2013-07-11 11:28:00,
2013-07-11 06:33:00,65.5,59.2,-100.00,NNE,26,0.0,1.0,80,0.00,,,0.00,meteohub,2013-07-11 11:33:00,
2013-07-11 06:38:00,65.7,59.4,-100.00,NNE,26,0.0,3.0,80,0.00,,,0.00,meteohub,2013-07-11 11:38:00,
2013-07-11 06:43:00,66.0,59.4,-100.00,NNE,26,0.0,3.0,79,0.00,,,0.00,meteohub,2013-07-11 11:43:00,
2013-07-11 06:48:00,66.2,59.5,-100.00,NNE,26,0.0,3.0,79,0.00,,,0.00,meteohub,2013-07-11 11:48:00,
2013-07-11 06:53:00,66.6,59.5,-100.00,NNE,26,0.0,2.0,78,0.00,,,0.00,meteohub,2013-07-11 11:53:00,
2013-07-11 06:58:00,67.1,60.1,-100.00,NNE,25,0.0,1.0,78,0.00,,,0.00,meteohub,2013-07-11 11:58:00,
2013-07-11 07:03:00,67.3,59.9,-100.00,NNE,25,0.0,1.0,77,0.00,,,0.00,meteohub,2013-07-11 12:03:00,
2013-07-11 07:08:00,67.5,60.1,-100.00,NNE,25,0.0,1.0,77,0.00,,,0.00,meteohub,2013-07-11 12:08:00,
2013-07-11 07:13:00,67.6,60.3,-100.00,NNE,32,0.0,1.0,77,0.00,,,0.00,meteohub,2013-07-11 12:13:00,
2013-07-11 07:18:00,68.2,60.3,-100.00,NNE,32,0.0,3.0,76,0.00,,,0.00,meteohub,2013-07-11 12:18:00,
2013-07-11 07:23:00,68.5,60.6,-100.00,NNE,30,0.0,3.0,76,0.00,,,0.00,meteohub,2013-07-11 12:23:00,
2013-07-11 07:28:00,69.1,60.8,-100.00,NNE,26,0.0,3.0,75,0.00,,,0.00,meteohub,2013-07-11 12:28:00,
2013-07-11 07:33:00,69.4,60.8,-100.00,NNE,31,0.0,2.0,74,0.00,,,0.00,meteohub,2013-07-11 12:33:00,
2013-07-11 07:38:00,69.8,60.8,-100.00,NNE,32,0.0,1.0,73,0.00,,,0.00,meteohub,2013-07-11 12:38:00,
2013-07-11 07:43:00,70.2,61.2,-100.00,NE,34,0.0,2.0,73,0.00,,,0.00,meteohub,2013-07-11 12:43:00,
2013-07-11 07:48:00,70.5,61.0,-100.00,NNE,28,0.0,9.0,72,0.00,,,0.00,meteohub,2013-07-11 12:48:00,
2013-07-11 07:57:00,70.7,61.2,-100.00,NE,36,0.0,9.0,72,0.00,,,0.00,meteohub,2013-07-11 12:57:00,
2013-07-11 08:02:00,71.1,61.2,-100.00,NE,48,0.0,2.0,71,0.00,,,0.00,meteohub,2013-07-11 13:02:00,
2013-07-11 08:07:00,71.2,61.7,-100.00,NE,56,0.0,6.0,72,0.00,,,0.00,meteohub,2013-07-11 13:07:00,
2013-07-11 08:12:00,72.0,62.1,-100.00,NE,53,0.0,6.0,71,0.00,,,0.00,meteohub,2013-07-11 13:12:00,
2013-07-11 08:17:00,72.3,62.1,-100.00,NE,51,0.0,5.0,70,0.00,,,0.00,meteohub,2013-07-11 13:17:00,
2013-07-11 08:22:00,72.7,62.2,-100.00,NE,51,0.0,5.0,70,0.00,,,0.00,meteohub,2013-07-11 13:22:00,
2013-07-11 08:27:00,72.9,62.4,-100.00,NE,42,0.0,5.0,70,0.00,,,0.00,meteohub,2013-07-11 13:27:00,
2013-07-11 08:32:00,72.9,62.1,-100.00,NE,41,0.0,2.0,69,0.00,,,0.00,meteohub,2013-07-11 13:32:00,
2013-07-11 08:37:00,72.9,63.0,-100.00,NE,40,0.0,1.0,71,0.00,,,0.00,meteohub,2013-07-11 13:37:00,
2013-07-11 08:42:00,73.6,62.8,-100.00,NE,38,0.0,1.0,69,0.00,,,0.00,meteohub,2013-07-11 13:42:00,
2013-07-11 08:47:00,73.8,63.0,-100.00,NE,53,0.0,4.0,69,0.00,,,0.00,meteohub,2013-07-11 13:47:00,
2013-07-11 08:52:00,74.3,63.1,-100.00,NNE,13,0.0,4.0,68,0.00,,,0.00,meteohub,2013-07-11 13:52:00,
2013-07-11 08:57:00,74.8,63.1,-100.00,NNE,21,0.0,4.0,67,0.00,,,0.00,meteohub,2013-07-11 13:57:00,
2013-07-11 09:02:00,75.4,63.1,-100.00,NNE,27,0.0,1.0,66,0.00,,,0.00,meteohub,2013-07-11 14:02:00,
2013-07-11 09:07:00,75.6,63.9,-100.00,NNE,28,0.0,1.0,67,0.00,,,0.00,meteohub,2013-07-11 14:07:00,
2013-07-11 09:12:00,75.7,64.0,-100.00,NNE,28,0.0,1.0,67,0.00,,,0.00,meteohub,2013-07-11 14:12:00,
2013-07-11 09:17:00,76.6,64.0,-100.00,NNE,15,0.0,1.0,65,0.00,,,0.00,meteohub,2013-07-11 14:17:00,
2013-07-11 09:22:00,77.4,64.2,-100.00,NNE,12,0.0,1.0,64,0.00,,,0.00,meteohub,2013-07-11 14:22:00,
2013-07-11 09:27:00,78.1,64.9,-100.00,NNE,12,0.0,1.0,64,0.00,,,0.00,meteohub,2013-07-11 14:27:00,
2013-07-11 09:32:00,78.6,64.0,-100.00,North,9,0.0,1.0,61,0.00,,,0.00,meteohub,2013-07-11 14:32:00,
2013-07-11 09:37:00,79.0,63.9,-100.00,NE,48,0.0,2.0,60,0.00,,,0.00,meteohub,2013-07-11 14:37:00,
2013-07-11 09:42:00,79.2,64.6,-100.00,NE,46,0.0,2.0,61,0.00,,,0.00,meteohub,2013-07-11 14:42:00,
2013-07-11 09:43:00,79.3,64.8,-100.00,NE,46,0.0,2.0,61,0.00,,,0.00,meteohub,2013-07-11 14:43:00,
2013-07-11 09:48:00,79.9,64.2,-100.00,NE,49,0.0,2.0,59,0.00,,,0.00,meteohub,2013-07-11 14:48:00,
2013-07-11 09:53:00,80.2,64.0,-100.00,NE,46,0.0,1.0,58,0.00,,,0.00,meteohub,2013-07-11 14:53:00,
2013-07-11 09:58:00,80.1,63.9,-100.00,NNE,22,0.0,1.0,58,0.00,,,0.00,meteohub,2013-07-11 14:58:00,
2013-07-11 10:03:00,80.8,65.1,-100.00,NNE,28,1.0,9.0,59,0.00,,,0.00,meteohub,2013-07-11 15:03:00,
2013-07-11 10:08:00,81.0,63.9,-100.00,NE,56,0.0,9.0,56,0.00,,,0.00,meteohub,2013-07-11 15:08:00,
2013-07-11 10:13:00,80.4,63.3,-100.00,NE,55,0.0,9.0,56,0.00,,,0.00,meteohub,2013-07-11 15:13:00,
2013-07-11 10:19:00,81.1,64.0,-100.00,NW,306,0.0,1.0,56,0.00,,,0.00,meteohub,2013-07-11 15:19:00,
2013-07-11 10:24:00,81.9,64.0,-100.00,NE,45,0.0,1.0,55,0.00,,,0.00,meteohub,2013-07-11 15:24:00,
2013-07-11 10:29:00,82.8,64.4,-100.00,NE,45,0.0,3.0,54,0.00,,,0.00,meteohub,2013-07-11 15:29:00,
2013-07-11 10:34:00,81.7,63.0,-100.00,ENE,60,3.0,3.0,53,0.00,,,0.00,meteohub,2013-07-11 15:34:00,
2013-07-11 10:39:00,81.1,63.0,-100.00,ENE,67,0.0,3.0,54,0.00,,,0.00,meteohub,2013-07-11 15:39:00,
2013-07-11 10:44:00,80.8,63.1,-100.00,ENE,68,0.0,6.0,55,0.00,,,0.00,meteohub,2013-07-11 15:44:00,
2013-07-11 10:49:00,81.0,62.2,-100.00,ESE,106,0.0,6.0,53,0.00,,,0.00,meteohub,2013-07-11 15:49:00,
2013-07-11 10:54:00,81.7,64.4,-100.00,ESE,119,0.0,10.0,56,0.00,,,0.00,meteohub,2013-07-11 15:54:00,
2013-07-11 10:59:00,81.9,63.0,-100.00,NNW,338,0.0,11.0,53,0.00,,,0.00,meteohub,2013-07-11 15:59:00,
2013-07-11 11:04:00,82.9,63.0,-100.00,ESE,103,0.0,11.0,51,0.00,,,0.00,meteohub,2013-07-11 16:04:00,
2013-07-11 11:09:00,82.8,63.3,-100.00,ESE,119,0.0,11.0,52,0.00,,,0.00,meteohub,2013-07-11 16:09:00,
2013-07-11 11:14:00,83.5,64.0,-100.00,NE,37,0.0,10.0,52,0.00,,,0.00,meteohub,2013-07-11 16:14:00,
2013-07-11 11:19:00,84.7,64.6,-100.00,NE,35,0.0,10.0,51,0.00,,,0.00,meteohub,2013-07-11 16:19:00,
2013-07-11 11:24:00,86.2,64.2,-100.00,NNW,333,0.0,10.0,48,0.00,,,0.00,meteohub,2013-07-11 16:24:00,
2013-07-11 11:29:00,87.1,63.9,-100.00,NNW,333,0.0,1.0,46,0.00,,,0.00,meteohub,2013-07-11 16:29:00,
2013-07-11 11:34:00,86.4,64.4,-100.00,ENE,68,0.0,1.0,48,0.00,,,0.00,meteohub,2013-07-11 16:34:00,
2013-07-11 11:39:00,84.9,63.0,-100.00,ENE,72,0.0,1.0,48,0.00,,,0.00,meteohub,2013-07-11 16:39:00,
2013-07-11 11:44:00,84.6,62.8,-100.00,NE,54,0.0,1.0,48,0.00,,,0.00,meteohub,2013-07-11 16:44:00,
2013-07-11 11:49:00,84.4,61.9,-100.00,NE,54,1.0,2.0,47,0.00,,,0.00,meteohub,2013-07-11 16:49:00,
2013-07-11 11:54:00,84.7,63.0,-100.00,NW,315,0.0,6.0,48,0.00,,,0.00,meteohub,2013-07-11 16:54:00,
2013-07-11 11:59:00,84.9,62.4,-100.00,NW,316,0.0,6.0,47,0.00,,,0.00,meteohub,2013-07-11 16:59:00,
2013-07-11 12:04:00,84.2,61.2,-100.00,East,98,0.0,6.0,46,0.00,,,0.00,meteohub,2013-07-11 17:04:00,
2013-07-11 12:09:00,83.7,62.4,-100.00,NE,44,0.0,4.0,49,0.00,,,0.00,meteohub,2013-07-11 17:09:00,
2013-07-11 12:14:00,84.6,63.3,-100.00,NNW,333,0.0,4.0,49,0.00,,,0.00,meteohub,2013-07-11 17:14:00,
2013-07-11 12:19:00,84.4,61.9,-100.00,NE,36,0.0,9.0,47,0.00,,,0.00,meteohub,2013-07-11 17:19:00,
2013-07-11 12:24:00,84.7,62.2,-100.00,WNW,288,0.0,9.0,47,0.00,,,0.00,meteohub,2013-07-11 17:24:00,
2013-07-11 12:29:00,85.3,62.8,-100.00,NNE,13,0.0,9.0,47,0.00,,,0.00,meteohub,2013-07-11 17:29:00,
2013-07-11 12:34:00,84.6,62.1,-100.00,NNE,32,2.0,2.0,47,0.00,,,0.00,meteohub,2013-07-11 17:34:00,
2013-07-11 12:39:00,83.1,61.3,-100.00,NE,36,0.0,4.0,48,0.00,,,0.00,meteohub,2013-07-11 17:39:00,
2013-07-11 12:44:00,83.7,62.4,-100.00,NE,36,0.0,6.0,49,0.00,,,0.00,meteohub,2013-07-11 17:44:00,
2013-07-11 12:49:00,83.8,61.5,-100.00,ENE,74,0.0,6.0,47,0.00,,,0.00,meteohub,2013-07-11 17:49:00,
2013-07-11 12:54:00,84.7,62.2,-100.00,NNE,30,0.0,1.0,47,0.00,,,0.00,meteohub,2013-07-11 17:54:00,
2013-07-11 12:59:00,85.1,62.1,-100.00,NE,52,0.0,1.0,46,0.00,,,0.00,meteohub,2013-07-11 17:59:00,
2013-07-11 13:04:00,85.5,62.2,-100.00,NE,51,0.0,6.0,46,0.00,,,0.00,meteohub,2013-07-11 18:04:00,
2013-07-11 13:09:00,84.9,61.9,-100.00,NE,53,0.0,6.0,46,0.00,,,0.00,meteohub,2013-07-11 18:09:00,
2013-07-11 13:14:00,84.0,61.7,-100.00,North,11,0.0,10.0,47,0.00,,,0.00,meteohub,2013-07-11 18:14:00,
2013-07-11 13:19:00,84.7,62.2,-100.00,ENE,66,0.0,10.0,47,0.00,,,0.00,meteohub,2013-07-11 18:19:00,
2013-07-11 13:24:00,85.5,61.0,-100.00,NE,48,0.0,9.0,44,0.00,,,0.00,meteohub,2013-07-11 18:24:00,
2013-07-11 13:29:00,86.2,61.7,-100.00,NE,48,0.0,10.0,44,0.00,,,0.00,meteohub,2013-07-11 18:29:00,
2013-07-11 13:34:00,86.2,61.7,-100.00,ENE,74,0.0,10.0,44,0.00,,,0.00,meteohub,2013-07-11 18:34:00,
2013-07-11 13:39:00,86.4,61.9,-100.00,NE,44,0.0,10.0,44,0.00,,,0.00,meteohub,2013-07-11 18:39:00,
2013-07-11 13:44:00,84.7,61.0,-100.00,ENE,59,0.0,7.0,45,0.00,,,0.00,meteohub,2013-07-11 18:44:00,
2013-07-11 13:49:00,85.1,62.1,-100.00,ENE,59,2.0,7.0,46,0.00,,,0.00,meteohub,2013-07-11 18:49:00,
2013-07-11 13:54:00,85.6,63.1,-100.00,NE,42,0.0,7.0,47,0.00,,,0.00,meteohub,2013-07-11 18:54:00,
2013-07-11 13:59:00,85.8,62.6,-100.00,NNE,29,0.0,8.0,46,0.00,,,0.00,meteohub,2013-07-11 18:59:00,
2013-07-11 14:04:00,85.6,61.9,-100.00,NNE,32,0.0,8.0,45,0.00,,,0.00,meteohub,2013-07-11 19:04:00,
2013-07-11 14:09:00,86.2,63.0,-100.00,NW,318,0.0,8.0,46,0.00,,,0.00,meteohub,2013-07-11 19:09:00,
2013-07-11 14:14:00,86.9,63.0,-100.00,NNW,328,0.0,4.0,45,0.00,,,0.00,meteohub,2013-07-11 19:14:00,
2013-07-11 14:19:00,86.7,62.2,-100.00,NE,48,0.0,4.0,44,0.00,,,0.00,meteohub,2013-07-11 19:19:00,
2013-07-11 14:24:00,86.2,61.7,-100.00,NE,55,0.0,5.0,44,0.00,,,0.00,meteohub,2013-07-11 19:24:00,
2013-07-11 14:29:00,85.6,61.2,-100.00,NE,49,0.0,5.0,44,0.00,,,0.00,meteohub,2013-07-11 19:29:00,
2013-07-11 14:34:00,86.2,62.4,-100.00,WNW,302,1.0,5.0,45,0.00,,,0.00,meteohub,2013-07-11 19:34:00,
2013-07-11 14:39:00,86.5,62.1,-100.00,ENE,64,0.0,5.0,44,0.00,,,0.00,meteohub,2013-07-11 19:39:00,
2013-07-11 14:44:00,86.2,61.0,-100.00,NE,45,0.0,10.0,43,0.00,,,0.00,meteohub,2013-07-11 19:44:00,
2013-07-11 14:49:00,86.4,61.2,-100.00,NE,45,0.0,10.0,43,0.00,,,0.00,meteohub,2013-07-11 19:49:00,
2013-07-11 14:54:00,86.0,61.0,-100.00,NE,54,0.0,10.0,43,0.00,,,0.00,meteohub,2013-07-11 19:54:00,
2013-07-11 14:59:00,85.6,62.4,-100.00,NE,51,4.0,9.0,46,0.00,,,0.00,meteohub,2013-07-11 19:59:00,
2013-07-11 15:04:00,85.6,61.2,-100.00,ENE,69,0.0,3.0,44,0.00,,,0.00,meteohub,2013-07-11 20:04:00,
2013-07-11 15:09:00,85.8,60.8,-100.00,ENE,77,0.0,4.0,43,0.00,,,0.00,meteohub,2013-07-11 20:09:00,
2013-07-11 15:14:00,86.0,61.0,-100.00,ENE,75,0.0,6.0,43,0.00,,,0.00,meteohub,2013-07-11 20:14:00,
2013-07-11 15:19:00,86.4,60.6,-100.00,ENE,75,0.0,6.0,42,0.00,,,0.00,meteohub,2013-07-11 20:19:00,
2013-07-11 15:24:00,85.6,61.2,-100.00,East,91,0.0,6.0,44,0.00,,,0.00,meteohub,2013-07-11 20:24:00,
2013-07-11 15:29:00,86.2,61.7,-100.00,NE,55,3.0,6.0,44,0.00,,,0.00,meteohub,2013-07-11 20:29:00,
2013-07-11 15:34:00,85.3,60.3,-100.00,East,96,4.0,6.0,43,0.00,,,0.00,meteohub,2013-07-11 20:34:00,
2013-07-11 15:39:00,85.5,59.7,-100.00,NE,49,0.0,7.0,42,0.00,,,0.00,meteohub,2013-07-11 20:39:00,
2013-07-11 15:44:00,85.5,61.0,-100.00,ENE,71,5.0,7.0,44,0.00,,,0.00,meteohub,2013-07-11 20:44:00,
2013-07-11 15:49:00,85.3,61.0,-100.00,ENE,76,1.0,7.0,44,0.00,,,0.00,meteohub,2013-07-11 20:49:00,
2013-07-11 15:54:00,85.1,60.1,-100.00,ENE,77,0.0,6.0,43,0.00,,,0.00,meteohub,2013-07-11 20:54:00,
2013-07-11 15:59:00,85.5,60.4,-100.00,ENE,72,0.0,6.0,43,0.00,,,0.00,meteohub,2013-07-11 20:59:00,
2013-07-11 16:04:00,85.6,60.6,-100.00,ENE,72,0.0,6.0,43,0.00,,,0.00,meteohub,2013-07-11 21:04:00,
2013-07-11 16:10:00,85.5,60.4,-100.00,NE,52,0.0,6.0,43,0.00,,,0.00,meteohub,2013-07-11 21:10:00,
2013-07-11 16:15:00,85.5,61.0,-100.00,NNW,329,0.0,6.0,44,0.00,,,0.00,meteohub,2013-07-11 21:15:00,
2013-07-11 16:20:00,85.6,61.2,-100.00,NE,51,0.0,5.0,44,0.00,,,0.00,meteohub,2013-07-11 21:20:00,
2013-07-11 16:25:00,86.2,61.0,-100.00,West,278,0.0,5.0,43,0.00,,,0.00,meteohub,2013-07-11 21:25:00,
2013-07-11 16:30:00,86.4,60.6,-100.00,SE,144,1.0,5.0,42,0.00,,,0.00,meteohub,2013-07-11 21:30:00,
2013-07-11 16:35:00,85.8,60.1,-100.00,SE,134,0.0,3.0,42,0.00,,,0.00,meteohub,2013-07-11 21:35:00,
2013-07-11 16:40:00,85.3,61.0,-100.00,SE,132,0.0,4.0,44,0.00,,,0.00,meteohub,2013-07-11 21:40:00,
2013-07-11 16:45:00,84.9,61.2,-100.00,ENE,68,0.0,4.0,45,0.00,,,0.00,meteohub,2013-07-11 21:45:00,
2013-07-11 16:50:00,84.7,61.0,-100.00,ENE,59,0.0,4.0,45,0.00,,,0.00,meteohub,2013-07-11 21:50:00,
2013-07-11 16:55:00,84.9,60.6,-100.00,ENE,63,0.0,4.0,44,0.00,,,0.00,meteohub,2013-07-11 21:55:00,
2013-07-11 17:00:00,85.5,61.0,-100.00,WNW,288,0.0,4.0,44,0.00,,,0.00,meteohub,2013-07-11 22:00:00,
2013-07-11 17:05:00,85.8,61.3,-100.00,NNW,344,0.0,4.0,44,0.00,,,0.00,meteohub,2013-07-11 22:05:00,
2013-07-11 17:10:00,85.5,60.4,-100.00,ENE,65,0.0,4.0,43,0.00,,,0.00,meteohub,2013-07-11 22:10:00,
2013-07-11 17:15:00,84.9,60.6,-100.00,NE,51,0.0,5.0,44,0.00,,,0.00,meteohub,2013-07-11 22:15:00,
2013-07-11 17:20:00,84.6,60.3,-100.00,NE,55,0.0,5.0,44,0.00,,,0.00,meteohub,2013-07-11 22:20:00,
2013-07-11 17:25:00,84.4,60.8,-100.00,NE,55,0.0,6.0,45,0.00,,,0.00,meteohub,2013-07-11 22:25:00,
2013-07-11 17:30:00,84.2,60.6,-100.00,ENE,71,0.0,6.0,45,0.00,,,0.00,meteohub,2013-07-11 22:30:00,
2013-07-11 17:35:00,84.0,60.4,-100.00,East,79,0.0,6.0,45,0.00,,,0.00,meteohub,2013-07-11 22:35:00,
2013-07-11 17:40:00,84.2,59.9,-100.00,ENE,57,0.0,5.0,44,0.00,,,0.00,meteohub,2013-07-11 22:40:00,
2013-07-11 17:45:00,84.2,59.9,-100.00,ENE,57,4.0,5.0,44,0.00,,,0.00,meteohub,2013-07-11 22:45:00,
2013-07-11 17:50:00,84.0,59.7,-100.00,ENE,68,0.0,4.0,44,0.00,,,0.00,meteohub,2013-07-11 22:50:00,
2013-07-11 17:55:00,84.0,61.0,-100.00,NE,46,0.0,5.0,46,0.00,,,0.00,meteohub,2013-07-11 22:55:00,
2013-07-11 18:00:00,83.5,60.4,-100.00,ENE,58,0.0,5.0,46,0.00,,,0.00,meteohub,2013-07-11 23:00:00,
2013-07-11 18:05:00,83.1,60.8,-100.00,ENE,60,0.0,7.0,47,0.00,,,0.00,meteohub,2013-07-11 23:05:00,
2013-07-11 18:10:00,82.9,61.2,-100.00,East,80,1.0,7.0,48,0.00,,,0.00,meteohub,2013-07-11 23:10:00,
2013-07-11 18:15:00,83.1,60.8,-100.00,East,86,0.0,6.0,47,0.00,,,0.00,meteohub,2013-07-11 23:15:00,
2013-07-11 18:20:00,82.9,60.1,-100.00,NE,42,0.0,6.0,46,0.00,,,0.00,meteohub,2013-07-11 23:20:00,
2013-07-11 18:25:00,82.9,60.1,-100.00,NE,42,0.0,6.0,46,0.00,,,0.00,meteohub,2013-07-11 23:25:00,
2013-07-11 18:30:00,82.9,60.1,-100.00,NE,53,0.0,4.0,46,0.00,,,0.00,meteohub,2013-07-11 23:30:00,
2013-07-11 18:35:00,82.9,60.1,-100.00,NE,52,0.0,4.0,46,0.00,,,0.00,meteohub,2013-07-11 23:35:00,
2013-07-11 18:40:00,82.8,59.9,-100.00,NE,53,0.0,4.0,46,0.00,,,0.00,meteohub,2013-07-11 23:40:00,
2013-07-11 18:45:00,82.6,60.3,-100.00,NE,55,1.0,4.0,47,0.00,,,0.00,meteohub,2013-07-11 23:45:00,
2013-07-11 18:50:00,82.2,59.9,-100.00,NE,55,0.0,4.0,47,0.00,,,0.00,meteohub,2013-07-11 23:50:00,
2013-07-11 18:55:00,82.0,59.9,-100.00,NE,55,0.0,6.0,47,0.00,,,0.00,meteohub,2013-07-11 23:55:00,
2013-07-11 19:00:00,81.9,60.3,-100.00,NE,54,0.0,6.0,48,0.00,,,0.00,meteohub,2013-07-12 00:00:00,
2013-07-11 19:05:00,81.7,59.5,-100.00,NE,53,0.0,6.0,47,0.00,,,0.00,meteohub,2013-07-12 00:05:00,
2013-07-11 19:10:00,81.3,59.7,-100.00,ENE,57,0.0,4.0,48,0.00,,,0.00,meteohub,2013-07-12 00:10:00,
2013-07-11 19:15:00,81.1,60.1,-100.00,ENE,58,0.0,4.0,49,0.00,,,0.00,meteohub,2013-07-12 00:15:00,
2013-07-11 19:20:00,81.0,60.1,-100.00,ENE,67,0.0,4.0,49,0.00,,,0.00,meteohub,2013-07-12 00:20:00,
2013-07-11 19:25:00,80.8,60.4,-100.00,ENE,67,0.0,3.0,50,0.00,,,0.00,meteohub,2013-07-12 00:25:00,
2013-07-11 19:30:00,80.4,60.1,-100.00,ENE,67,0.0,3.0,50,0.00,,,0.00,meteohub,2013-07-12 00:30:00,
2013-07-11 19:35:00,80.2,59.9,-100.00,ENE,67,0.0,1.0,50,0.00,,,0.00,meteohub,2013-07-12 00:35:00,
2013-07-11 19:40:00,80.1,60.3,-100.00,ENE,74,0.0,1.0,51,0.00,,,0.00,meteohub,2013-07-12 00:40:00,
2013-07-11 19:45:00,79.9,60.1,-100.00,ENE,74,0.0,1.0,51,0.00,,,0.00,meteohub,2013-07-12 00:45:00,
2013-07-11 19:50:00,79.5,60.4,-100.00,ENE,74,0.0,1.0,52,0.00,,,0.00,meteohub,2013-07-12 00:50:00,
2013-07-11 19:55:00,79.2,61.2,-100.00,ENE,74,0.0,1.0,54,0.00,,,0.00,meteohub,2013-07-12 00:55:00,
2013-07-11 20:00:00,79.0,61.5,-100.00,ENE,74,0.0,1.0,55,0.00,,,0.00,meteohub,2013-07-12 01:00:00,
2013-07-11 20:05:00,78.6,61.2,-100.00,ENE,74,0.0,0.0,55,0.00,,,0.00,meteohub,2013-07-12 01:05:00,
2013-07-11 20:10:00,78.3,61.3,-100.00,ENE,74,0.0,0.0,56,0.00,,,0.00,meteohub,2013-07-12 01:10:00,
2013-07-11 20:15:00,78.1,61.5,-100.00,ENE,74,0.0,1.0,57,0.00,,,0.00,meteohub,2013-07-12 01:15:00,
2013-07-11 20:20:00,77.7,61.3,-100.00,ENE,74,0.0,1.0,57,0.00,,,0.00,meteohub,2013-07-12 01:20:00,
2013-07-11 20:25:00,77.4,61.3,-100.00,ENE,74,0.0,1.0,58,0.00,,,0.00,meteohub,2013-07-12 01:25:00,
2013-07-11 20:30:00,77.0,61.2,-100.00,ENE,74,0.0,0.0,58,0.00,,,0.00,meteohub,2013-07-12 01:30:00,
2013-07-11 20:35:00,76.6,61.2,-100.00,ENE,74,0.0,0.0,59,0.00,,,0.00,meteohub,2013-07-12 01:35:00,
2013-07-11 20:40:00,76.3,61.3,-100.00,ENE,72,0.0,1.0,60,0.00,,,0.00,meteohub,2013-07-12 01:40:00,
2013-07-11 20:45:00,75.9,61.0,-100.00,ENE,72,0.0,1.0,60,0.00,,,0.00,meteohub,2013-07-12 01:45:00,
2013-07-11 20:50:00,75.6,61.2,-100.00,ENE,72,0.0,1.0,61,0.00,,,0.00,meteohub,2013-07-12 01:50:00,
2013-07-11 20:55:00,75.4,61.5,-100.00,ENE,72,0.0,1.0,62,0.00,,,0.00,meteohub,2013-07-12 01:55:00,
2013-07-11 21:00:00,75.0,61.2,-100.00,ENE,72,0.0,0.0,62,0.00,,,0.00,meteohub,2013-07-12 02:00:00,
2013-07-11 21:05:00,74.8,61.3,-100.00,ENE,72,0.0,0.0,63,0.00,,,0.00,meteohub,2013-07-12 02:05:00,
2013-07-11 21:10:00,74.5,61.5,-100.00,ENE,72,0.0,0.0,64,0.00,,,0.00,meteohub,2013-07-12 02:10:00,
2013-07-11 21:15:00,74.1,61.5,-100.00,ENE,72,0.0,0.0,65,0.00,,,0.00,meteohub,2013-07-12 02:15:00,
2013-07-11 21:20:00,74.1,61.5,-100.00,ENE,72,0.0,1.0,65,0.00,,,0.00,meteohub,2013-07-12 02:20:00,
2013-07-11 21:25:00,73.8,61.7,-100.00,ENE,72,0.0,1.0,66,0.00,,,0.00,meteohub,2013-07-12 02:25:00,
2013-07-11 21:30:00,73.8,61.7,-100.00,ENE,72,0.0,1.0,66,0.00,,,0.00,meteohub,2013-07-12 02:30:00,
2013-07-11 21:35:00,73.4,61.3,-100.00,ENE,72,0.0,1.0,66,0.00,,,0.00,meteohub,2013-07-12 02:35:00,
2013-07-11 21:40:00,73.0,61.5,-100.00,ENE,72,0.0,1.0,67,0.00,,,0.00,meteohub,2013-07-12 02:40:00,
2013-07-11 21:45:00,73.0,61.5,-100.00,ENE,72,0.0,1.0,67,0.00,,,0.00,meteohub,2013-07-12 02:45:00,
2013-07-11 21:50:00,72.9,61.3,-100.00,ENE,72,0.0,1.0,67,0.00,,,0.00,meteohub,2013-07-12 02:50:00,
2013-07-11 21:55:00,72.7,61.2,-100.00,ENE,72,0.0,1.0,67,0.00,,,0.00,meteohub,2013-07-12 02:55:00,
2013-07-11 22:00:00,72.5,61.0,-100.00,ENE,72,0.0,1.0,67,0.00,,,0.00,meteohub,2013-07-12 03:00:00,
2013-07-11 22:05:00,72.3,61.2,-100.00,ENE,72,0.0,1.0,68,0.00,,,0.00,meteohub,2013-07-12 03:05:00,
2013-07-11 22:10:00,72.1,61.0,-100.00,ENE,72,0.0,1.0,68,0.00,,,0.00,meteohub,2013-07-12 03:10:00,
2013-07-11 22:15:00,72.0,61.2,-100.00,ENE,72,0.0,1.0,69,0.00,,,0.00,meteohub,2013-07-12 03:15:00,
2013-07-11 22:20:00,71.6,60.8,-100.00,ENE,72,0.0,1.0,69,0.00,,,0.00,meteohub,2013-07-12 03:20:00,
2013-07-11 22:25:00,71.4,60.8,-100.00,ENE,72,0.0,1.0,69,0.00,,,0.00,meteohub,2013-07-12 03:25:00,
2013-07-11 22:30:00,71.4,60.8,-100.00,ENE,72,0.0,1.0,69,0.00,,,0.00,meteohub,2013-07-12 03:30:00,
2013-07-11 22:35:00,71.2,60.6,-100.00,ENE,72,0.0,1.0,69,0.00,,,0.00,meteohub,2013-07-12 03:35:00,
2013-07-11 22:40:00,71.2,60.6,-100.00,ENE,72,0.0,1.0,69,0.00,,,0.00,meteohub,2013-07-12 03:40:00,
2013-07-11 22:45:00,71.2,60.6,-100.00,ENE,72,0.0,0.0,69,0.00,,,0.00,meteohub,2013-07-12 03:45:00,
2013-07-11 22:50:00,71.1,60.4,-100.00,ENE,72,0.0,1.0,69,0.00,,,0.00,meteohub,2013-07-12 03:50:00,
2013-07-11 22:55:00,71.1,60.4,-100.00,ENE,72,0.0,1.0,69,0.00,,,0.00,meteohub,2013-07-12 03:55:00,
2013-07-11 23:00:00,70.9,60.6,-100.00,ENE,72,0.0,1.0,70,0.00,,,0.00,meteohub,2013-07-12 04:00:00,
2013-07-11 23:01:00,70.9,60.6,-100.00,ENE,72,0.0,1.0,70,0.00,,,0.00,meteohub,2013-07-12 04:01:00,
2013-07-11 23:06:00,70.5,60.3,-100.00,ENE,72,0.0,0.0,70,0.00,,,0.00,meteohub,2013-07-12 04:06:00,
2013-07-11 23:11:00,70.3,60.4,-100.00,ENE,72,0.0,0.0,71,0.00,,,0.00,meteohub,2013-07-12 04:11:00,
2013-07-11 23:21:00,70.3,60.4,-100.00,ENE,72,0.0,0.0,71,0.00,,,0.00,meteohub,2013-07-12 04:21:00,
2013-07-11 23:26:00,70.2,60.3,-100.00,ENE,72,0.0,0.0,71,0.00,,,0.00,meteohub,2013-07-12 04:26:00,
2013-07-11 23:31:00,70.0,60.1,-100.00,ENE,72,0.0,1.0,71,0.00,,,0.00,meteohub,2013-07-12 04:31:00,
2013-07-11 23:36:00,70.0,60.6,-100.00,ENE,72,0.0,1.0,72,0.00,,,0.00,meteohub,2013-07-12 04:36:00,
2013-07-11 23:41:00,69.8,60.4,-100.00,ENE,72,0.0,1.0,72,0.00,,,0.00,meteohub,2013-07-12 04:41:00,
2013-07-11 23:46:00,69.6,60.3,-100.00,ENE,72,0.0,0.0,72,0.00,,,0.00,meteohub,2013-07-12 04:46:00,
2013-07-11 23:51:00,69.6,60.6,-100.00,ENE,72,0.0,0.0,73,0.00,,,0.00,meteohub,2013-07-12 04:51:00,
2013-07-11 23:56:00,69.4,60.4,-100.00,ENE,72,0.0,0.0,73,0.00,,,0.00,meteohub,2013-07-12 04:56:00,